Flag for Germany Weather past 2 weeks in Trier, Rhineland-Palatinate, Germany

Now
81 °F

Passing clouds.


Feels Like: 83 °F
Forecast: 58 / 80 °F
Wind: 1 mph from Northeast

Location: Trier-Petrisberg

Current Time: Jul 5, 2015 at 10:28:22 AM

Latest Report: Jul 5, 2015 at 10:00 AM


Visibility: 16 mi

Pressure: 30.00 "Hg

Humidity: 56%

Dew point: 64 °F

Location of TrierLocation

Historic Weather in Trier — Graph

°F

Trier temperature yesterday

Maximum temperature yesterday: 100 °F (at 6:00 PM)
Minimum temperature yesterday: 72 °F (at 6:00 AM)
Average temperature yesterday: 86 °F

Past Weeks' High & Low Weather Summary

 TemperatureHumidityPressure
High100 °F (Jul 2, 5:00 PM)99% (Jun 21, 7:00 AM)30.23 "Hg (Jun 21, 7:00 AM)
Low46 °F (Jun 23, 3:00 AM)15% (Jul 4, 7:00 PM)29.72 "Hg (Jun 22, 10:00 PM)
Average69 °F62%30.08 "Hg
* Reported Jun 20 9:00 AM — Jul 5 9:00 AM, Trier, Weather by CustomWeather, © 2015

Note: Actual official high and low records may vary slightly from our data, if they occured in-between our weather recording intervals... More about our weather records

Advertising

Trier weather history for previous 24 hours

 ConditionsComfort  
Time TempWeatherWind HumidityBarometerVisibility
9:00 AM
Sun, Jul 5
77 °FPassing clouds.3 mph63%30.01 "Hg16 mi
8:00 AM75 °FPassing clouds.5 mph69%30.02 "Hg12 mi
7:00 AM72 °FPassing clouds.3 mph77%30.03 "Hg12 mi
5:00 AM73 °FPassing clouds.5 mph70%30.06 "Hg12 mi
4:00 AM72 °FPassing clouds.5 mph71%30.07 "Hg12 mi
3:00 AM73 °FPassing clouds.3 mph64%30.08 "Hg19 mi
2:00 AM74 °FPassing clouds.2 mph64%30.07 "Hg17 mi
1:00 AM76 °FPassing clouds.2 mph57%30.07 "Hg19 mi
12:00 AM77 °FClear.2 mph58%30.07 "Hg17 mi
11:00 PM
Sat, Jul 4
80 °FPassing clouds.3 mph47%30.06 "Hg22 mi
10:00 PM84 °FOvercast.2 mph34%30.05 "Hg22 mi
9:00 PM89 °FOvercast.2 mph29%30.05 "Hg22 mi
8:00 PM93 °FOvercast.2 mph18%30.06 "Hg31 mi
7:00 PM98 °FSunny.3 mph15%30.05 "Hg31 mi
6:00 PM100 °FPassing clouds.3 mph22%30.05 "Hg19 mi
5:00 PM98 °FOvercast.3 mph25%30.06 "Hg22 mi
4:00 PM98 °FPartly sunny.6 mph21%30.06 "Hg22 mi
3:00 PM98 °FScattered clouds.6 mph21%30.06 "Hg16 mi
2:00 PM97 °FScattered clouds.6 mph29%30.06 "Hg16 mi
1:00 PM95 °FScattered clouds.3 mph35%30.06 "Hg16 mi
12:00 PM89 °FPartly sunny.3 mph37%30.07 "Hg16 mi
11:00 AM89 °FPartly sunny.5 mph39%30.08 "Hg16 mi
10:00 AM85 °FPartly sunny.3 mph45%30.07 "Hg15 mi
Weather by CustomWeather, © 2015

See weather overviewHow to use our weather pages